Location: Malcolm X Square
(37.7810°N, 122.4297°W)
Time: 23:55:12
(UTC+00:00)

Cosmos 1461 - Pass Details

Date: 13 April 2024
Orbit: 499 x 586 km, 65.0° (Epoch: 20 May)

Event Time Altitude Azimuth Distance (km) Brightness Sun altitude
Rises 12:15:40 0° 324° (NW) 2,606 6.2 -15.9°
Reaches altitude 10° 12:17:52 10° 320° (NW) 1,711 5.2 -15.5°
Maximum altitude 12:21:34 52° 243° (WSW) 622 2.7 -14.9°
Drops below altitude 10° 12:25:15 10° 166° (SSE) 1,695 5.2 -14.2°
Sets 12:27:25 0° 162° (SSE) 2,578 6.2 -13.8°
